Content
SEND FEEDBACK

Daily
Averages
Monthly
Summary
United States of America

GLEN CANYON CITY, UTAH


Home > North America > United States > Utah
Elevation: 4133 feet     Latitude: 37 05N     Longitude: 111 40W

WEATHER
 
SELECT A DAY
Number of Records: 194,562;   Date Range: 1/1/95 - 7/7/14
 
SHARE

PRINT THIS DATA

[ ← Previous Day ]
WEATHER ALMANAC - SEPTEMBER 25, 2013
[ Next Day → ]
[ °C ]   °F
Weather ElementAverageHighLow
Temperature74.5 °F84.9 °F (2:53 pm)63 °F (4:53 am)
Dewpoint27.7 °F32 °F (10:53 pm)21.9 °F (12:53 pm)
Humidity18.6 %28 % (4:53 am)10 % (12:53 pm)
Barometer29.51 in29.67 in (1:53 am)29.39 in (2:53 pm)
Wind Speed11.6 mph20.7 mph (12:53 pm)
Wind Gust32.2 mph (11:53 am)
Weather ElementAverage
Visibility10 mi
Wind DirectionS (183.5 °)

Weather ElementTotal
Precipitation---
Cooling Degree Days9 (Base 65)
Growing Degree Days24 (Base 50)
Averaged from 23 records on September 25, 2013
WEATHER CONDITIONS BREAKOUT
WIND DIRECTION BREAKOUT
WEATHER BY HOUR - SEPTEMBER 25, 2013
[ °C ]   °F
Local TimeTemperatureDewpointHumidityBarometerVisibilityWind DirectionWind SpeedGust SpeedPrecipitationEventsConditions
1:53 AM69.1 °F28.0 °F22 %29.67 in10.0 miSouth (190°)8.1 mphClear
2:53 AM68.0 °F27.0 °F21 %29.65 in10.0 miSouth (190°)6.9 mphClear
3:53 AM64.9 °F28.0 °F25 %29.63 in10.0 miSSE (160°)11.5 mphClear
4:53 AM63.0 °F28.9 °F28 %29.62 in10.0 miSSE (150°)9.2 mphClear
5:53 AM66.9 °F28.0 °F23 %29.61 in10.0 miSouth (190°)11.5 mph19.6 mphClear
6:53 AM66.9 °F28.0 °F23 %29.62 in10.0 miSouth (180°)15.0 mph23.0 mphClear
7:53 AM69.1 °F28.9 °F22 %29.61 in10.0 miSouth (170°)8.1 mphClear
8:53 AM72.0 °F30.9 °F22 %29.60 in10.0 miVariable4.6 mphClear
9:53 AM77.0 °F28.9 °F17 %29.55 in10.0 miSSW (200°)17.3 mph24.2 mphClear
10:53 AM80.1 °F28.0 °F15 %29.51 in10.0 miSSW (210°)15.0 mph27.6 mphClear
11:53 AM82.9 °F25.0 °F12 %29.48 in10.0 miSSW (210°)12.7 mph32.2 mphClear
12:53 PM84.0 °F21.9 °F10 %29.45 in10.0 miSSW (200°)20.7 mph29.9 mphClear
1:53 PM84.0 °F26.1 °F12 %29.42 in10.0 miSW (220°)13.8 mph29.9 mphClear
2:53 PM84.9 °F26.1 °F12 %29.39 in10.0 miSW (220°)11.5 mph27.6 mphClear
3:53 PM84.0 °F24.1 °F11 %29.39 in10.0 miSW (220°)15.0 mph28.8 mphClear
4:53 PM82.0 °F26.1 °F13 %29.41 in10.0 miSW (220°)10.4 mph26.5 mphClear
5:53 PM80.1 °F25.0 °F13 %29.42 in10.0 miSSW (200°)8.1 mph24.2 mphClear
6:53 PM78.1 °F25.0 °F14 %29.43 in10.0 miSouth (190°)13.8 mph21.9 mphClear
7:53 PM75.0 °F28.9 °F18 %29.46 in10.0 miSouth (190°)9.2 mphClear
8:53 PM73.9 °F30.0 °F20 %29.46 in10.0 miSouth (190°)11.5 mph20.7 mphClear
9:53 PM72.0 °F30.9 °F22 %29.45 in10.0 miSouth (190°)11.5 mph21.9 mphClear
10:53 PM68.0 °F32.0 °F26 %29.46 in10.0 miSouth (170°)11.5 mphClear
11:53 PM68.0 °F32.0 °F26 %29.44 in10.0 miSSE (160°)9.2 mphClear
Hourly data recorded from KPGA, located miles away from Glen Canyon City, Utah







STORIES FROM OUR PARTNERS